This demonstration page uses our WeatherBlox Daily Observations layout. Learn more.

Left ArrowRight Arrow

39.51506, -84.39828

Hourly Observations for September 10, 2021

Temp ( °F °C ) Dew Point ( °F °C ) Humidity (%) Winds ( mph kmh ) Pressure ( in mb ) Visibility ( mi km ) Precip ( " mm )
12:15 am 00:15 Clear 57 14 N/A N/A N N/A 30.06 1018 10 16 N/A
12:35 am 00:35 Clear 57 14 N/A N/A N N/A 30.06 1018 10 16 N/A
12:55 am 00:55 Clear 55 13 N/A N/A N N/A 30.07 1018 10 16 N/A
1:15 am 01:15 Clear 55 13 N/A N/A N N/A 30.07 1018 10 16 N/A
1:35 am 01:35 Clear 55 13 N/A N/A N N/A 30.07 1018 10 16 N/A
1:55 am 01:55 Clear 55 13 N/A N/A N 3 6 30.07 1018 10 16 N/A
2:15 am 02:15 Clear 54 12 N/A N/A N N/A 30.08 1019 10 16 N/A
2:35 am 02:35 Hazy 54 12 N/A N/A N N/A 30.08 1019 4 6 N/A
2:55 am 02:55 Clear 54 12 N/A N/A N N/A 30.08 1019 7 11 N/A
3:15 am 03:15 Clear 54 12 N/A N/A N N/A 30.08 1019 10 16 N/A
3:35 am 03:35 Clear 54 12 N/A N/A N N/A 30.08 1019 10 16 N/A
3:55 am 03:55 Hazy 52 11 N/A N/A N N/A 30.09 1019 5 8 N/A
4:15 am 04:15 Clear 54 12 N/A N/A N N/A 30.09 1019 10 16 N/A
4:35 am 04:35 Clear 54 12 N/A N/A N N/A 30.09 1019 10 16 N/A
4:55 am 04:55 Clear 52 11 N/A N/A N N/A 30.10 1019 5 8 N/A
5:15 am 05:15 Clear with Mist and Fog 52 11 N/A N/A N N/A 30.10 1019 2 3 N/A
5:35 am 05:35 Mostly Cloudy with Fog 52 11 N/A N/A N N/A 30.11 1020 1 1 N/A
5:55 am 05:55 Clear 52 11 N/A N/A N N/A 30.12 1020 10 16 N/A
6:15 am 06:15 Mostly Cloudy with Mist and Fog 50 10 N/A N/A N N/A 30.12 1020 1 2 N/A
6:35 am 06:35 Clear 50 10 N/A N/A N 3 6 30.13 1020 10 16 N/A
6:55 am 06:55 Clear 50 10 N/A N/A N 3 6 30.14 1021 10 16 N/A
7:15 am 07:15 Sunny 50 10 N/A N/A NNE 3 6 30.14 1021 10 16 N/A
7:35 am 07:35 Sunny 52 11 N/A N/A NE 3 6 30.15 1021 10 16 N/A
7:55 am 07:55 Sunny 52 11 N/A N/A NE 3 6 30.15 1021 10 16 N/A
8:15 am 08:15 Sunny 52 11 N/A N/A N N/A 30.16 1021 10 16 N/A
8:35 am 08:35 Sunny 54 12 N/A N/A NE 3 6 30.15 1021 10 16 N/A
8:55 am 08:55 Sunny 55 13 N/A N/A NNE 3 6 30.15 1021 10 16 N/A
9:15 am 09:15 Sunny 58 14.6 56 13.6 94 94 N N/A 30.15 1021 10 16 N/A
9:35 am 09:35 Sunny 61 16 57 14.1 89 89 N N/A 30.14 1021 10 16 N/A
9:55 am 09:55 Sunny 62 16.7 57 14 84 84 N N/A 30.15 1021 10 16 N/A
10:15 am 10:15 Sunny 63 17.4 58 14.2 82 82 N N/A 30.15 1021 10 16 N/A
10:35 am 10:35 Sunny 65 18.3 59 14.8 80 80 N N/A 30.15 1021 10 16 N/A
10:55 am 10:55 Sunny 67 19.2 57 13.8 71 71 N N/A 30.15 1021 10 16 N/A
11:15 am 11:15 Sunny 69 20.5 54 12.4 60 60 N N/A 30.15 1021 10 16 N/A
11:35 am 11:35 Sunny 70 21.1 53 11.8 55 55 N N/A 30.15 1021 10 16 N/A
11:55 am 11:55 Sunny 72 22 53 11.8 52 52 WNW 5 7 30.15 1021 10 16 N/A
12:15 pm 12:15 Sunny 72 22.3 54 12.1 53 53 WNW 7 11 30.15 1021 10 16 N/A
12:35 pm 12:35 Sunny 73 22.7 53 11.8 50 50 N 5 7 30.14 1021 10 16 N/A
12:55 pm 12:55 Sunny 74 23.2 53 11.8 49 49 NNE 6 9 30.13 1020 10 16 N/A
1:15 pm 13:15 Sunny 73 22.9 50 10.2 45 45 W 5 7 30.13 1020 10 16 N/A
1:35 pm 13:35 Sunny 74 23.4 51 10.5 44 44 NNW 7 11 30.13 1020 10 16 N/A
1:55 pm 13:55 Sunny 75 23.9 53 11.7 46 46 NNE 5 7 30.13 1020 10 16 N/A
2:15 pm 14:15 Sunny 75 24 53 11.5 46 46 SSE 5 7 30.12 1020 10 16 N/A
2:35 pm 14:35 Sunny 75 24.1 51 10.8 43 43 E 5 7 30.12 1020 10 16 N/A
2:55 pm 14:55 Sunny 75 24 52 11 44 44 N N/A 30.11 1019 10 16 N/A
3:15 pm 15:15 Sunny 76 24.6 53 11.8 45 45 NE 6 9 30.10 1019 10 16 N/A
3:35 pm 15:35 Partly Cloudy 76 24.3 52 11 43 43 NW 3 6 30.09 1019 10 16 N/A
3:55 pm 15:55 Mostly Cloudy 77 25.2 53 11.4 42 42 NE 6 9 30.08 1019 10 16 N/A
4:15 pm 16:15 Cloudy 76 24.6 51 10.7 42 42 NE 5 7 30.07 1018 10 16 N/A
4:35 pm 16:35 Partly Cloudy 77 25.1 51 10.3 39 39 W 3 6 30.07 1018 10 16 N/A
4:55 pm 16:55 Sunny 76 24.6 51 10.3 41 41 NW 3 6 30.07 1018 10 16 N/A
5:15 pm 17:15 Sunny 76 24.7 51 10.3 40 40 NNW 6 9 30.07 1018 10 16 N/A
5:35 pm 17:35 Sunny 77 25 51 10.4 40 40 N N/A 30.07 1018 10 16 N/A
5:55 pm 17:55 Sunny 76 24.4 50 9.9 40 40 N N/A 30.07 1018 10 16 N/A
6:15 pm 18:15 Sunny 76 24.5 51 10.7 42 42 WSW 3 6 30.06 1018 10 16 N/A
6:35 pm 18:35 Sunny 75 24.1 50 9.8 40 40 N N/A 30.07 1018 10 16 N/A
6:55 pm 18:55 Sunny 75 24 51 10.4 42 42 N N/A 30.07 1018 10 16 N/A
7:15 pm 19:15 Sunny 74 23.4 51 10.4 44 44 ESE 3 6 30.07 1018 10 16 N/A
7:35 pm 19:35 Sunny 69 20.4 59 15 71 71 N N/A 30.07 1018 10 16 N/A
7:55 pm 19:55 Clear 65 18.5 59 14.8 79 79 N N/A 30.08 1019 10 16 N/A
8:15 pm 20:15 Clear 63 17 60 15.7 92 92 N N/A 30.08 1019 10 16 N/A
8:35 pm 20:35 Clear 61 16.3 60 15.5 95 95 N N/A 30.08 1019 10 16 N/A
8:55 pm 20:55 Clear 60 15.8 59 15 95 95 N N/A 30.09 1019 10 16 N/A
9:15 pm 21:15 Clear 60 15.5 58 14.6 94 94 N N/A 30.10 1019 10 16 N/A
9:35 pm 21:35 Clear 59 15 58 14.3 96 96 N N/A 30.12 1020 10 16 N/A
9:55 pm 21:55 Clear 58 14.5 57 13.9 96 96 N N/A 30.12 1020 10 16 N/A
10:15 pm 22:15 Clear 57 13.8 57 13.8 100 100 N N/A 30.13 1020 10 16 N/A
10:35 pm 22:35 Clear 57 14 57 14 100 100 N N/A 30.13 1020 10 16 N/A
10:55 pm 22:55 Clear 57 14 N/A N/A N N/A 30.13 1020 10 16 N/A
11:15 pm 23:15 Clear 57 14 N/A N/A N N/A 30.14 1021 10 16 N/A
11:35 pm 23:35 Clear 57 14 N/A N/A N N/A 30.14 1021 10 16 N/A
11:55 pm 23:55 Clear 55 13 N/A N/A N N/A 30.14 1021 10 16 N/A

Powered by AerisWeather